STARLINK-34209, 64150

Orbit data source: Space-Track

STARLINK-34209, 64150 is a payload satellite owned by SpaceX/Seattle (US) in SSO that was launched on Tue, 27 May 2025 UTC via an FALCON 9 launch vehicle from the Air Force Western Test Range (AFWTR). Payload-class satellites include a variety of spacecraft equipped with specific instruments for various scientific and technological missions. These include communications satellites like Starlink; space stations such as the ISS; scientific satellites like the Hubble; Earth observation satellites from companies like Planet Labs, Umbra, and HawkEye 360; GPS; miniature CubeSats for education and research; and military/defense satellites.

Loading next visibility...
Identifier
64150, 2025-112E
Orbit
SSO
Country
Flag of USUS
Related business
Manufacturer
SpaceX/Seattle
Mission
Operational Commercial Communications
Bus & Motor
STARLINK V2MO, Unknown motor
Mass
575 kg wet, ~530 kg dry
Launch date (UTC)
2025-05-27 (1 year ago)
Launch vehicle
FALCON 9
Launch site
Air Force Western Test Range (AFWTR)
Object type
Payload
Rocket body
Debris
Shape & HBR
Box + 2 Pan, 17.7 m
Radar Cross Section
36.964 m², Large (>1 m²)

Expand to show TLE details & history
Last TLE update: 15 hours ago

TLE from 15 hours ago
0 STARLINK-34209
1 64150U 25112E   26145.12924279 -.00014272  00000-0 -98828-3 0  9997
2 64150  97.4514 196.5457 0001470 184.5936 175.5277 15.05605416 54818
Epoch: 2026-05-25T03:06Z
TLE epoch observation values (Epoch: 2026-05-25T03:06:06.577Z)
Latitude
-0.00009°
Longitude
-92.70316°
Altitude
553.733 km
Speed
7.584 km/s
True Right ascension
13h 06m 10s
True Declination
0° 00' 00"
Sunlit
Object was in full shadow at epoch
Visualization orbit readout
Latitude
Unknown
Longitude
Unknown
Altitude
Unknown
Speed
Unknown
Apparent Right ascension
Unknown
Apparent Declination
Unknown
Sunlit
N/A
Visualization observer readout
Local Sidereal Time
02:49:25
Azimuth
Unknown
Elevation
Unknown
Doppler factor
Unknown
Orbital elements
Apogee altitude
547.653 km
Perigee altitude
545.617 km
Semi-major axis
6,924.772 km
Eccentricity
0.00015
Inclination
97.4514°
RAAN
196.5457°
Arg. of periapsis
184.5936°
True anomaly
175.52901°
Mean anomaly
175.5277°
Eccentric anomaly
175.52836°
Mean motion
3.76647 °/min
Orbital period
95.58 mins
BSTAR
-0.00098828
Loading maneuver chart data...
Computing Atmospheric mass density...
Loading historical data...
Loading historical data...
Loading historical data...
Loading historical data...
Loading historical data...
Loading historical data...
Loading historical data...

Documentation

Showing up to 5 results
|